Location: Riverside Cemetery
(38.3047°N, 99.7773°W)
Time: 05:55:52
(UTC+00:00)

Sich 1 Rocket - Pass Details

Date: 19 September 2020
Orbit: 617 x 652 km, 82.5° (Epoch: 21 October)

Event Time Altitude Azimuth Distance (km) Brightness Sun altitude
Rises 01:47:32 0° 186° (S) 2,904 6.9 -13.7°
Reaches altitude 10° 01:49:44 10° 186° (S) 2,007 6.1 -14.1°
Maximum altitude 01:54:12 90° 207° (SSW) 643 3.6 -14.9°
Drops below altitude 10° 01:58:45 10° 7° (N) 2,044 6.3 -15.8°
Sets 02:01:01 0° 8° (N) 2,963 7.1 -16.2°
